Вернуться в каталог

FENGYUN 1C DEB

АктивенLEO
NORAD 32456·DEBRIS·🇨🇳 China

Запущен May 10, 1999 с Taiyuan Satellite Launch Center

Loading…

Ближайшие Пролёты (ближайшие 24 часа)

TLE

УстаревшееSource: Space-Track

Эпоха: Sep 4, 2026, 21:15 UTC

1 32456U 99025DBU 26247.88596344  .00000686  00000-0  98080-3 0  9991
2 32456 103.6635 122.8402 0377312  41.7610 321.1657 13.36153930641704

Отслеживайте FENGYUN 1C DEB в реальном времени с AllMySat

Download on the App Store